| time (UTC) | temp F | wind direction | speed knots | gust knots | rain 1hr in | rain 24hr in | rain mn in | humidity % | barometer mb |
| 20260502151018 | 75 | 0.0 | 0.0 | 0.00 | 0.00 | 0.00 | 61 | 1015.1 | |
| 20260502150501 | 75 | 0.0 | 0.0 | 0.00 | 0.00 | 0.00 | 61 | 1015.1 | |
| 20260502130334 | 72 | 0.0 | 0.0 | 0.00 | 0.00 | 0.00 | 64 | 1017.1 | |
| 20260502123510 | 73 | 0.0 | 0.0 | 0.00 | 0.00 | 0.00 | 62 | 1018.0 | |
| 20260502123004 | 74 | 0.0 | 0.0 | 0.00 | 0.00 | 0.00 | 61 | 1017.9 | |
| 20260502122346 | 74 | 0.0 | 0.0 | 0.00 | 0.00 | 0.00 | 60 | 1017.7 | |
| 20260502121834 | 74 | 0.0 | 0.0 | 0.00 | 0.00 | 0.00 | 60 | 1017.7 | |
| 20260502121216 | 74 | 0.0 | 0.0 | 0.00 | 0.00 | 0.00 | 60 | 1017.3 | |
| 20260502120603 | 74 | 0.0 | 0.0 | 0.00 | 0.00 | 0.00 | 60 | 1017.2 | |
| 20260502115545 | 74 | 0.0 | 0.0 | 0.00 | 0.00 | 0.00 | 60 | 1017.1 | |
| 20260502115028 | 75 | 0.0 | 0.0 | 0.00 | 0.00 | 0.00 | 60 | 1017.1 | |
| 20260502114516 | 75 | 0.0 | 0.0 | 0.00 | 0.00 | 0.00 | 60 | 1017.0 | |
| 20260502114004 | 75 | 0.0 | 0.0 | 0.00 | 0.00 | 0.00 | 60 | 1017.1 | |
| 20260502113351 | 75 | 0.0 | 0.0 | 0.00 | 0.00 | 0.00 | 59 | 1017.2 | |
| 20260502112840 | 76 | 0.0 | 0.0 | 0.00 | 0.00 | 0.00 | 59 | 1017.2 | |
| 20260502112332 | 76 | 0.0 | 0.0 | 0.00 | 0.00 | 0.00 | 59 | 1017.4 | |
| 20260502111816 | 76 | 0.0 | 0.0 | 0.00 | 0.00 | 0.00 | 59 | 1017.4 | |
| 20260502111304 | 76 | 0.0 | 0.0 | 0.00 | 0.00 | 0.00 | 59 | 1017.5 | |
| 20260502110752 | 75 | 0.0 | 0.0 | 0.00 | 0.00 | 0.00 | 60 | 1017.6 | |
| 20260502110140 | 75 | 0.0 | 0.0 | 0.00 | 0.00 | 0.00 | 60 | 1017.7 | |
| 20260502105628 | 75 | 0.0 | 0.0 | 0.00 | 0.00 | 0.00 | 60 | 1017.7 | |
| 20260502105122 | 76 | 0.0 | 0.0 | 0.00 | 0.00 | 0.00 | 59 | 1017.8 | |
| 20260502104605 | 74 | 0.0 | 0.0 | 0.00 | 0.00 | 0.00 | 61 | 1017.9 | |
| 20260502104053 | 74 | 0.0 | 0.0 | 0.00 | 0.00 | 0.00 | 60 | 1018.0 | |
| 20260502103541 | 74 | 0.0 | 0.0 | 0.00 | 0.00 | 0.00 | 60 | 1018.1 | |
| 20260502103028 | 74 | 0.0 | 0.0 | 0.00 | 0.00 | 0.00 | 60 | 1018.0 | |
| 20260502102517 | 74 | 0.0 | 0.0 | 0.00 | 0.00 | 0.00 | 60 | 1018.1 | |
| 20260502102010 | 74 | 0.0 | 0.0 | 0.00 | 0.00 | 0.00 | 60 | 1018.1 | |
| 20260502101453 | 74 | 0.0 | 0.0 | 0.00 | 0.00 | 0.00 | 60 | 1018.0 | |
| 20260502100840 | 74 | 0.0 | 0.0 | 0.00 | 0.00 | 0.00 | 60 | 1018.1 | |
| 20260502100121 | 74 | 0.0 | 0.0 | 0.00 | 0.00 | 0.00 | 60 | 1017.9 | |
| 20260502091131 | 77 | 0.0 | 0.0 | 0.00 | 0.00 | 0.00 | 58 | 1018.8 | |
| 20260502090513 | 78 | 0.0 | 0.0 | 0.00 | 0.00 | 0.00 | 57 | 1018.8 | |
| 20260502071202 | 77 | 0.0 | 0.0 | 0.00 | 0.00 | 0.00 | 59 | 1018.0 | |
| 20260502070650 | 77 | 0.0 | 0.0 | 0.00 | 0.00 | 0.00 | 59 | 1017.9 | |
| 20260502070144 | 77 | 0.0 | 0.0 | 0.00 | 0.00 | 0.00 | 59 | 1017.9 | |
| 20260502065626 | 77 | 0.0 | 0.0 | 0.00 | 0.00 | 0.00 | 60 | 1017.7 | |
| 20260502065115 | 77 | 0.0 | 0.0 | 0.00 | 0.00 | 0.00 | 60 | 1017.7 | |
| 20260502064502 | 77 | 0.0 | 0.0 | 0.00 | 0.00 | 0.00 | 59 | 1017.5 | |
| 20260502063950 | 77 | 0.0 | 0.0 | 0.00 | 0.00 | 0.00 | 60 | 1017.4 | |
| 20260502063438 | 77 | 0.0 | 0.0 | 0.00 | 0.00 | 0.00 | 60 | 1017.1 | |
| 20260502062932 | 76 | 0.0 | 0.0 | 0.00 | 0.00 | 0.00 | 60 | 1017.3 | |
| 20260502062414 | 76 | 0.0 | 0.0 | 0.00 | 0.00 | 0.00 | 60 | 1017.3 | |
| 20260502061902 | 76 | 0.0 | 0.0 | 0.00 | 0.00 | 0.00 | 60 | 1017.2 | |
| 20260502061351 | 76 | 0.0 | 0.0 | 0.00 | 0.00 | 0.00 | 60 | 1017.1 | |
| 20260502060839 | 76 | 0.0 | 0.0 | 0.00 | 0.00 | 0.00 | 60 | 1017.1 | |
| 20260502060327 | 76 | 0.0 | 0.0 | 0.00 | 0.00 | 0.00 | 60 | 1017.0 | |
| 20260502055821 | 76 | 0.0 | 0.0 | 0.00 | 0.00 | 0.00 | 60 | 1016.9 | |
| 20260502055305 | 76 | 0.0 | 0.0 | 0.00 | 0.00 | 0.00 | 60 | 1016.8 | |
| 20260502054752 | 76 | 0.0 | 0.0 | 0.00 | 0.00 | 0.00 | 60 | 1016.6 | |
| 20260502054240 | 76 | 0.0 | 0.0 | 0.00 | 0.00 | 0.00 | 60 | 1016.4 | |
| 20260502053627 | 76 | 0.0 | 0.0 | 0.00 | 0.00 | 0.00 | 60 | 1016.3 | |
| 20260502053115 | 76 | 0.0 | 0.0 | 0.00 | 0.00 | 0.00 | 61 | 1016.1 | |
| 20260502052609 | 76 | 0.0 | 0.0 | 0.00 | 0.00 | 0.00 | 60 | 1016.0 | |
| 20260502052052 | 76 | 0.0 | 0.0 | 0.00 | 0.00 | 0.00 | 60 | 1015.8 | |
| 20260502051540 | 76 | 0.0 | 0.0 | 0.00 | 0.00 | 0.00 | 61 | 1015.8 | |
| 20260502051027 | 75 | 0.0 | 0.0 | 0.00 | 0.00 | 0.00 | 61 | 1015.8 | |
| 20260502050516 | 75 | 0.0 | 0.0 | 0.00 | 0.00 | 0.00 | 60 | 1015.8 |